%RNM: Due to unresolved conflict with other data supplied earlier, GMT0221,MRPL,EG,MRPL,kWh,I,N, is changed to GMT0221,MRPL,EG,MRPL,kWh,I,Nb, to distinguish them until a resolution is found.
CYD2201,CTCT,GG,CTCT,kWh,I,F,01/05/03,56540,56120,57190,57810,56860,7630,0,0,0,0,0,47470,56630,56950,56930,97360,103380,103030,103130,103290,103250,102610,103110,59660,55570,55680,55900,55360,55760,56050,55290,56030,55790,55880,96880,101800,102480,101730,101780,102630,103010,61840,55740,55850,55810,56290,55430,55890,3053420
CYD2201,CTCT,GG,CTCT,kWh,I,F,02/05/03,55550,55730,55600,56030,55110,8630,0,0,0,0,48540,54760,54050,53900,54720,95440,100570,100670,100880,100790,100730,101020,101770,57170,54090,54210,54440,54440,53920,54570,54660,54540,54450,96040,100710,100650,101070,100500,101390,101130,101930,100620,57160,52630,52860,53180,52820,53300,3126970
CYD2201,CTCT,GG,CTCT,kWh,I,F,03/05/03,52870,52960,52910,53280,52860,4230,0,0,0,0,0,48420,54350,54180,54700,54250,95790,100710,101090,100180,101460,100200,101180,62020,54120,54150,54380,54760,54170,54060,55130,54730,53960,54510,93520,101270,100220,100010,101030,101150,59460,53800,54420,54640,54250,54640,54350,54330,2878700
CYD2201,CTCT,GG,CTCT,kWh,I,F,04/05/03,54380,54340,54390,54330,54810,3750,0,0,0,0,0,48830,54200,54700,54250,54700,98390,104080,109840,101850,102380,103040,60940,54390,54110,54450,54370,54130,54510,54380,54040,54640,54370,54340,54200,99980,105100,105270,105710,105860,105870,105040,56780,54430,54160,54520,53800,53500,2935150
CYD2201,CTCT,GG,CTCT,kWh,I,F,05/05/03,53010,53440,53360,53720,53110,53330,53150,53570,53670,53640,53210,54210,54800,95750,100970,100670,101030,100520,100800,100740,100720,100620,101130,100750,57540,51800,51530,51680,52100,51730,54430,54460,54480,95120,103880,103240,103330,103270,104250,103550,103810,103360,104000,102500,62450,53500,52930,52790,3631650
CYD2201,CTCT,GG,CTCT,kWh,I,F,06/05/03,52700,52510,52210,52340,52410,52500,52200,52360,52220,52700,52450,52850,52450,98070,103860,103890,105960,106180,107880,105980,106700,106890,105220,57670,53790,54120,54400,53710,53560,54100,54030,54210,53760,54240,98080,105750,106700,105850,107380,106370,106700,104540,61090,54000,53740,53810,53930,54210,3502270
CYD2201,CTCT,GG,CTCT,kWh,I,F,07/05/03,54290,54150,54300,54570,54530,5530,0,0,0,0,0,47500,54230,99200,105950,108360,107320,108160,108500,105690,106150,106580,106270,106040,105750,59960,54430,54140,54640,54380,54560,54630,54140,99150,106570,106050,106000,105570,106020,105630,107580,106090,105420,106110,63180,54380,54820,54600,3481120
CYD2201,CTCT,GG,CTCT,kWh,I,F,08/05/03,58600,55950,55340,56030,55490,55230,55860,55990,55850,56210,55340,48360,87880,141920,187000,202340,201930,202800,204090,196810,157840,106200,104800,105170,104100,57260,54490,53740,54740,54600,54500,96710,104650,148010,189310,206920,204750,202710,203380,203280,156720,107160,104250,104080,103990,105420,103730,106490,5448020
CYD2201,CTCT,GG,CTCT,kWh,I,F,09/05/03,54330,54310,53950,54530,54700,3870,0,0,0,0,0,49910,54300,53760,54690,97130,111950,113270,112280,105810,107770,104470,105640,104340,104590,104650,104550,58500,55340,55190,55860,55240,55380,98750,105050,105000,104560,103840,104410,104410,105860,105090,104220,60700,55390,55650,55890,55340,3424470
CYD2201,CTCT,GG,CTCT,kWh,I,F,10/05/03,52660,52670,53000,53550,52720,5730,0,0,0,0,0,47110,53120,52700,52470,53510,100390,109830,109090,108740,107720,106390,105630,106600,105330,105770,106470,104990,106530,55980,52940,52480,53140,53270,99950,106570,105010,105650,106210,106380,107100,105610,105360,106330,106930,56850,53030,53290,3504800
CYD2201,CTCT,GG,CTCT,kWh,I,F,11/05/03,53750,54700,54200,55010,54560,54110,54370,54820,54320,54000,54580,55200,54340,54230,53730,99880,108270,109110,107920,106370,104790,103750,103200,103690,104510,103810,102670,103010,56630,54460,54090,54080,95070,107080,105760,106570,105330,107040,110400,111380,104160,103200,103400,103730,58660,54310,54610,54350,3881210
CYD2201,CTCT,GG,CTCT,kWh,I,F,12/05/03,54300,54540,54460,54430,54280,54430,54340,54600,54220,54640,54430,54420,54680,54040,101090,111690,110300,110960,112700,109680,111120,111050,109950,113670,110550,57940,54140,53600,54310,55210,54480,54480,54180,103980,111600,110720,109740,111550,111390,110800,111180,111080,111970,110560,56590,54330,54300,54700,3847400
CYD2201,CTCT,GG,CTCT,kWh,I,F,13/05/03,53750,54500,54430,54480,54500,54430,3330,0,0,0,49090,54530,54550,105060,106430,101520,99990,101260,102340,105060,106650,105790,106360,106330,106120,106290,106620,106110,105950,58000,54950,54120,95970,104410,104080,104210,105650,104340,103970,104300,103270,102910,103340,103060,55230,53010,53140,53080,3786510
CYD2201,CTCT,GG,CTCT,kWh,I,F,14/05/03,52600,52360,52580,53350,52290,2200,0,0,0,0,0,45410,97770,107560,106340,106530,107050,106640,107210,107440,106710,107320,107240,107100,105950,106590,107180,107150,107260,106940,106880,106860,107380,106990,107030,106270,107670,106200,106950,107060,107090,106580,106720,106810,58170,54110,51490,51110,3938140
CYD2201,CTCT,GG,CTCT,kWh,I,F,15/05/03,52720,52680,53120,53060,52590,3240,0,0,0,0,0,47520,54440,102400,106410,106980,150300,155750,156930,155140,108800,107380,107600,106940,107590,107440,107640,107300,107620,106780,107870,107730,106760,108740,107760,107160,106540,107210,107670,107360,107520,107260,107090,58390,52800,53130,53060,53340,4045760
CYD2201,CTCT,GG,CTCT,kWh,I,F,16/05/03,52620,52800,52950,53450,52790,3850,0,0,0,0,0,46710,52720,96640,145220,158680,155300,156160,156450,155550,108870,105300,104230,104980,104150,104780,103840,105910,104300,104420,104790,105000,105350,104770,104820,149330,154440,156750,155860,156030,110660,103360,104970,104220,60440,52770,55240,55370,4386840
CYD2201,CTCT,GG,CTCT,kWh,I,F,17/05/03,55670,55150,54580,54350,54090,5170,0,0,0,0,0,47060,53760,64830,105480,108150,107620,148230,156050,155560,156750,155360,109140,104880,105280,105910,104900,104890,105790,92320,102080,105480,105310,105000,150790,155490,155720,156830,155450,158080,110080,106890,107500,107730,106980,59170,51420,52240,4423210
CYD2201,CTCT,GG,CTCT,kWh,I,F,18/05/03,52420,53180,53250,52400,52780,6340,0,0,0,0,46410,53050,53110,52640,91810,104300,106250,150230,157990,155720,155860,155140,110940,107250,108490,107470,106960,106750,106780,107100,106890,108230,108110,107940,149200,154830,155900,155950,155720,110110,107240,106630,108110,106550,105890,57230,53430,53340,4425920
CYD2201,CTCT,GG,CTCT,kWh,I,F,19/05/03,53270,52770,53090,53100,52230,53610,5590,0,0,0,0,45710,53330,98970,107120,148890,157150,155560,156770,155790,155830,155970,138380,108770,105200,106540,105900,102960,106590,103430,103860,103100,105550,112960,108490,107330,104250,104250,104350,104870,105310,103810,104120,103520,103630,105820,57040,53380,4388160
CYD2201,CTCT,GG,CTCT,kWh,I,F,20/05/03,52630,52590,53150,52670,52730,3700,0,0,0,0,0,42680,52960,94960,102630,145640,152450,153310,158490,156410,156170,158150,110110,107550,107620,107020,107430,104330,105260,105820,105350,105440,104860,105680,105690,105750,104000,104590,104980,105710,105800,104740,104680,105660,94890,53290,52030,52630,4222230
CYD2201,CTCT,GG,CTCT,kWh,I,F,21/05/03,53990,54470,54520,54400,54290,3680,0,0,47650,54840,54330,54520,92240,104900,104080,100150,101920,101360,104550,101550,102970,103710,102110,103770,100770,104060,103040,102950,101160,103520,102460,103050,101400,146240,154850,154270,153600,154210,154650,143600,104120,102290,101830,102990,102480,100300,103060,102320,4513220
CYD2201,CTCT,GG,CTCT,kWh,I,F,22/05/03,108080,108950,110050,110950,105340,110300,110140,110410,110970,110810,102850,100960,100800,104690,134480,156360,158320,157930,158830,157550,158480,158470,155120,113730,109360,110100,109910,106860,105440,105880,105670,106330,106610,142960,150350,150970,149900,150230,115180,110850,111590,107370,106130,105720,104850,105860,104990,106050,5803730
CYD2201,CTCT,GG,CTCT,kWh,I,F,23/05/03,104650,103920,56450,52080,51730,51880,52020,52080,51800,51990,51910,52180,97510,105490,105060,143660,152470,152520,154960,135800,134920,136140,138250,141800,123920,105070,107320,107110,106710,106520,105140,106780,104570,106640,114500,147900,151530,145820,109830,104830,105880,100770,101870,101360,102460,102570,102400,101880,5004650
CYD2201,CTCT,GG,CTCT,kWh,I,F,24/05/03,109340,110160,110160,109740,109700,57630,54260,54600,54980,54500,54350,54230,101400,109420,110380,147440,154600,155600,162720,152960,151020,155300,151710,151870,151880,151730,151290,110940,107520,107890,108020,107110,108280,146960,151090,150690,151700,150950,152730,149440,146350,145990,148370,145950,147250,110110,108170,107740,5856220
CYD2201,CTCT,GG,CTCT,kWh,I,F,25/05/03,107810,110990,74130,72240,46590,44890,50530,52550,55450,55380,56430,56480,100660,103900,107360,146850,151250,157240,158680,143770,150710,109870,105630,109090,108050,102390,102160,104650,107970,107360,107560,106580,107630,106960,146350,150860,150060,150860,150850,109610,104790,104370,104520,107330,107000,107050,107200,107720,5098360
CYD2201,CTCT,GG,CTCT,kWh,I,F,26/05/03,106800,107090,106470,107680,107220,106720,107240,107870,106840,107380,106840,107290,106530,104820,104900,146630,151840,153110,152840,150250,149260,146950,153870,152140,151280,109610,108280,106360,106150,107630,107380,107540,106680,107210,139420,150640,152310,150930,152390,153970,153120,151910,152210,110490,107310,108510,106620,106870,5973400
CYD2201,CTCT,GG,CTCT,kWh,I,F,27/05/03,108090,107880,108210,108340,56770,54330,53140,53240,54170,54440,54720,54440,100910,150930,157940,158730,155900,156920,159950,152730,152330,153390,155590,157140,153910,111950,105620,104560,105240,104260,105910,105310,105600,105120,146990,155050,157540,156830,157430,157310,157270,155040,154340,110780,104900,105880,105330,106070,5718470
CYD2201,CTCT,GG,CTCT,kWh,I,F,28/05/03,104670,105050,104130,107640,106310,106790,58820,53140,53330,52900,52950,53170,105490,119290,114790,154860,160970,157970,157060,147340,151080,149780,158400,156160,155910,110620,107800,106940,106840,106900,107940,107800,105870,146420,158030,162300,156870,155430,155290,155520,156720,156130,110240,107770,107200,107150,108750,106140,5758670
CYD2201,CTCT,GG,CTCT,kWh,I,F,29/05/03,105770,107480,106860,56660,52700,52930,53120,52540,53950,52330,53150,62570,107400,121710,113620,152980,152510,151730,153650,153590,151900,152220,155400,163190,153510,152090,152860,152160,109880,107170,107110,106950,107210,106960,147560,155960,152920,151950,152480,152570,153590,151740,152140,153010,106970,104580,103480,104290,5739100
CYD2201,CTCT,GG,CTCT,kWh,I,F,30/05/03,104060,107060,107100,108380,103100,103050,103300,56500,54390,53960,54430,54680,99590,107070,149640,152320,152940,156470,160620,144430,143800,145630,148550,159180,152110,152120,153440,108780,102700,101430,102050,101240,103750,143790,151850,150460,149560,149080,151300,153600,152280,152160,114110,107450,98030,86150,105150,107390,5780230
CYD2201,CTCT,GG,CTCT,kWh,I,F,31/05/03,106770,109050,110110,109570,77170,70370,70500,70320,54730,56740,56550,56660,95090,104260,104010,104920,132310,150820,151930,150150,152170,150510,149850,151930,149320,147660,145990,140610,102730,103840,104350,90990,96910,123330,147590,147960,147060,149360,149570,103360,101360,100530,91210,80050,93800,87950,102170,103230,5357420
CYD2201,CTCT,GG,CTCT,kWh,I,F,01/06/03,103900,103350,104820,101950,57430,50610,50850,50950,50490,50150,50060,46620,85850,95790,96280,102850,102290,103180,123000,123680,140760,118500,105640,105870,103650,110870,74440,68680,61910,48740,53480,51160,57550,110180,136480,152980,152150,153020,151670,141270,113660,104680,104590,104610,103840,105840,103840,100350,4594510
CYD2201,CTCT,GG,CTCT,kWh,I,F,02/06/03,83120,83390,83030,84040,51520,48850,48450,35910,34750,34810,77620,83440,98980,99030,99500,148620,153780,153200,152920,104720,100070,100600,100470,99960,100840,100080,100930,100150,101050,100220,100390,101020,100170,101090,100010,101080,100460,100960,100500,100520,101100,100420,100410,100700,100560,100280,102500,105050,4581270
CYD2201,CTCT,GG,CTCT,kWh,I,F,03/06/03,100400,100830,99890,99910,100800,100350,100920,100460,99930,100210,101130,100350,100220,101840,99790,144580,152790,153880,153780,153560,154110,153000,108470,100490,100400,100490,100170,100540,100790,100260,100770,100440,100690,100290,147740,153320,153930,153040,104670,100880,100510,100590,100290,100490,100390,100580,100570,100400,5403930
CYD2201,CTCT,GG,CTCT,kWh,I,F,04/06/03,148160,155830,117410,118610,116690,117460,118130,116710,116990,118210,117340,117520,117750,157470,161800,161010,161220,160740,162190,161690,161160,160720,162590,161390,160420,162090,162140,161090,159760,162910,160810,162500,162290,162010,161140,160420,161830,160680,161570,162940,161340,160980,160000,119220,118470,117440,117940,116600,7025380
CYD2201,CTCT,GG,CTCT,kWh,I,F,05/06/03,105510,104650,105980,105850,104760,104060,104760,100620,102640,101870,109040,154310,158910,163130,160420,163830,162000,164510,165580,162160,163210,163450,156280,154390,153250,154020,153060,155730,153370,153640,154590,154200,154440,154310,153850,153160,153380,154530,153380,155670,153260,152820,152420,153000,109830,107170,105250,104650,6744900
CYD2201,CTCT,GG,CTCT,kWh,I,F,06/06/03,104520,104580,104990,106250,104410,105020,103730,104790,104900,104150,104750,104140,104820,147410,152350,155230,153040,152690,155470,153160,153950,154840,152730,154650,154480,153620,154870,106070,104840,105140,105610,105420,104400,145900,155420,152500,153560,156140,153700,154790,153480,151260,153450,155490,153950,154190,108390,106090,6349330
CYD2201,CTCT,GG,CTCT,kWh,I,F,07/06/03,104140,103390,103680,104880,103540,104100,104010,57850,55540,55220,55000,97340,103810,104020,108400,109690,148710,154650,154970,153170,154320,153300,155150,153540,154260,153410,154690,108850,104330,106140,104490,104430,106330,150140,152830,154320,154240,153190,154330,155010,154160,153270,152900,154250,153340,109100,105470,105610,5961510
CYD2201,CTCT,GG,CTCT,kWh,I,F,08/06/03,109230,109490,109310,61640,55410,55390,55580,56340,55770,55800,56080,55450,103490,151250,155330,195890,203540,203740,202580,203110,202710,203090,159640,110430,106910,106490,65150,55100,56630,55140,53060,55710,98760,149090,152130,198240,201800,202510,204710,201980,201410,158810,108560,104890,105500,106680,103970,107590,5891110
CYD2201,CTCT,GG,CTCT,kWh,I,F,09/06/03,104180,104120,98680,75150,71300,71880,72290,71700,72050,72590,78430,104820,104900,156880,158610,159070,159270,159860,159470,156430,158730,159030,159380,159210,159770,157640,177620,177690,169220,161290,165620,179830,178640,185250,182940,166490,165050,166850,164540,166920,170300,162300,171630,124470,120180,113760,144110,130480,6710620
CYD2201,CTCT,GG,CTCT,kWh,I,F,10/06/03,118140,122990,113640,110210,108200,104590,100800,102320,102780,100900,101830,111420,116170,140990,164670,165370,169670,166270,166230,165550,182960,196560,205450,205550,195530,190550,170890,163800,161590,163530,163830,160490,150890,154880,162890,166340,163790,168480,167030,166140,168080,165780,166690,117310,111560,111390,112060,112280,7079060
CYD2201,CTCT,GG,CTCT,kWh,I,F,11/06/03,156180,157230,118470,111840,59320,55700,55190,55370,54760,53610,53630,53460,98940,152890,156650,198770,208310,204790,202470,206000,159740,153710,145180,143700,144400,144570,156040,152350,146310,147500,143400,144200,145020,144290,180000,192300,200050,203650,156260,151780,151360,153610,151950,153610,152860,149990,154470,152400,6788280
CYD2201,CTCT,GG,CTCT,kWh,I,F,12/06/03,110510,104890,105940,57180,52730,53540,54010,52850,53530,53610,53590,105410,151170,201940,204630,204370,202250,203220,180550,179940,181770,180300,155210,151400,153320,151970,153760,154160,154810,152360,153770,151060,154760,153440,194890,201490,199340,199160,198620,198160,158630,153140,152980,154670,152620,152230,154550,152150,7010580
CYD2201,CTCT,GG,CTCT,kWh,I,F,13/06/03,143130,142020,97660,59930,56660,57090,57060,56980,57080,56630,57360,92040,150310,159160,153390,199950,203240,166980,163150,158490,153170,153280,154960,153890,153640,155160,154030,155190,154600,152870,154780,154880,153730,155360,154980,153490,154560,155570,155910,149970,152560,150340,158400,157950,156470,154200,154250,154950,6611450
CYD2201,CTCT,GG,CTCT,kWh,I,F,14/06/03,144340,142830,142150,142920,143120,98180,57640,54480,54800,55020,53920,96430,129750,153070,155070,154640,155960,155430,153820,153040,164910,153620,154540,155770,155160,154140,154050,153920,154090,155020,156560,153930,153120,155870,158400,165550,159330,163180,163800,155120,152960,154940,153280,154860,154410,124960,106660,105220,6643980
CYD2201,CTCT,GG,CTCT,kWh,I,F,15/06/03,146030,151550,110280,108150,96680,97630,54530,53620,53270,53520,53290,59670,80480,93680,110030,131280,155050,156010,158140,159080,157770,157210,158830,159560,158560,156290,157690,159760,157450,159210,157390,156510,155840,156890,164130,169040,164620,165620,155840,153540,155710,154100,153520,154210,133020,86530,104720,105700,6311230
CYD2201,CTCT,GG,CTCT,kWh,I,F,16/06/03,146630,152560,106930,103240,105240,106680,104680,105590,106080,104330,104110,105300,115330,110630,165480,185850,185780,189640,188730,157110,156600,156090,157910,155670,156310,155100,156690,155070,155440,156440,156450,156160,156020,156090,163600,205010,208990,210400,208800,209970,159740,153880,152940,154760,152530,142500,150890,156490,7266460
CYD2201,CTCT,GG,CTCT,kWh,I,F,17/06/03,149220,151990,150340,151250,149660,141440,132290,135070,122900,114850,116250,141420,151430,154560,156520,167020,168070,169990,168350,168520,168280,169270,169040,169600,166680,170530,169190,166510,166540,168890,169660,168220,166790,169080,168080,166860,166520,169750,167460,167210,152780,153100,150400,151670,146060,146360,149510,151800,7526980
CYD2201,CTCT,GG,CTCT,kWh,I,F,18/06/03,150460,150510,151050,150090,143860,130450,114000,106860,107440,117160,145800,151580,151940,149810,152050,161880,161220,159820,161980,160460,160980,159680,162890,158990,156540,151830,154300,154790,154390,153490,150850,152110,150540,154390,160170,160950,158930,160580,159060,160170,156480,149810,149020,148270,118620,107300,145920,144520,7133990
CYD2201,CTCT,GG,CTCT,kWh,I,F,19/06/03,147510,110810,145920,152770,151180,143370,135920,127750,107590,103500,105140,104060,143190,150290,162640,162130,158770,160700,156400,151460,153590,151330,151110,151280,150360,150520,153950,149440,150250,151420,152230,151240,152430,150090,153670,159880,155720,159020,160760,153860,152300,150920,149410,150520,133410,118130,140360,137360,6975660
CYD2201,CTCT,GG,CTCT,kWh,I,F,20/06/03,148750,150430,152770,145390,149930,152490,141770,130670,126610,141930,146810,147740,151690,151770,151870,156460,148370,151790,156100,159270,152870,150650,152260,151800,148720,150880,154000,149080,150000,128650,110110,111490,146260,149640,147470,147360,147840,146440,150010,147650,146740,145270,116630,116880,142120,117290,115710,115290,6871720
CYD2201,CTCT,GG,CTCT,kWh,I,F,21/06/03,120290,120040,121590,105230,106710,107400,107440,104720,104350,106090,104160,104660,104700,104820,109290,148400,158590,149100,150950,159560,158610,157950,158990,158450,158890,158030,158080,158740,158330,158120,159690,159160,146450,158440,167550,156910,165250,165090,166090,166890,161470,160630,162020,161530,161310,160040,162380,160880,6884060
CYD2201,CTCT,GG,CTCT,kWh,I,F,22/06/03,114080,112120,111900,111170,106160,106300,112460,113210,111670,106970,106630,108330,106700,106940,107860,144620,163060,163830,163220,162980,164170,162030,163990,164110,162260,162890,163350,163780,164560,162700,163830,163870,163340,153810,157190,162200,155310,155310,159130,158400,158880,151560,151530,150260,151590,149730,153520,150990,6884500
CYD2201,CTCT,GG,CTCT,kWh,I,F,23/06/03,106130,101920,98730,98170,100470,104130,101640,103070,101960,102300,102820,102420,104710,105160,104990,104850,150520,155400,157480,158230,158120,157220,156170,157090,131850,129890,157210,157040,155680,157220,156460,158630,155920,157900,159180,156460,155910,158510,157620,156600,158080,156090,150290,149290,140520,145280,149600,147900,6552830
CYD2201,CTCT,GG,CTCT,kWh,I,F,24/06/03,113980,110330,110880,107850,107710,104730,107940,108470,107540,108640,110110,110760,154510,158080,161480,162890,162210,162400,160660,162640,161680,164270,164810,165380,166100,165940,168130,167440,167140,166760,166030,166910,166750,167380,166460,166690,167580,167240,166260,167860,166040,167060,168250,161390,164000,163870,166030,167560,7244820
CYD2201,CTCT,GG,CTCT,kWh,I,F,25/06/03,163530,159990,159810,162090,163330,162500,162640,162890,162060,149940,136590,153720,163030,163140,158220,158030,162050,161580,161940,161430,162150,162590,161370,162280,161350,161310,161880,161540,164950,163260,163020,165500,164840,165160,164630,163230,164860,163900,165830,164730,164760,162520,163430,164320,165260,163090,165500,165820,7771590
CYD2201,CTCT,GG,CTCT,kWh,I,F,26/06/03,111760,108110,102000,101120,99640,100930,108250,108140,107400,107640,109660,108630,108170,152060,161820,167590,166480,166050,167190,168060,167070,166220,167380,166230,166140,167400,167710,167680,165960,167270,168290,168870,167610,170600,169880,170750,170320,169910,169100,169180,168650,169350,169120,167890,166200,165960,166450,167970,7235860
CYD2201,CTCT,GG,CTCT,kWh,I,F,27/06/03,165980,167260,120060,107330,106380,101070,101510,100940,101140,101790,100510,101950,108600,158290,168440,170840,170120,169260,170260,170800,170820,165910,166710,165540,163960,165020,165170,167660,164400,165340,166030,167060,166570,168880,167820,170750,172290,171530,171560,171290,172100,170690,169030,167700,165830,166640,167880,166780,7363490
CYD2201,CTCT,GG,CTCT,kWh,I,F,28/06/03,161680,164240,116730,110780,111080,110530,111020,110830,109120,109890,110950,110310,110810,110270,141010,145720,162070,162370,167190,167130,164820,166310,167870,166040,166650,167310,167260,167250,166510,167690,166720,167080,166960,167190,170320,167150,167000,167040,166870,168030,166370,166860,168230,166310,165200,167640,166300,168540,7281250
CYD2201,CTCT,GG,CTCT,kWh,I,F,29/06/03,164450,163600,116020,111070,110280,110480,110980,102540,109590,102800,105410,108780,110830,110730,112200,145800,163290,162230,163920,168960,166070,165410,166900,169150,166580,165580,167090,165280,167910,167270,167270,167440,169100,167610,168150,164570,165150,167330,167310,165380,166840,165550,168370,135030,165020,167110,165820,165220,7189470
CYD2201,CTCT,GG,CTCT,kWh,I,F,30/06/03,162520,155230,146320,129610,134120,133300,130770,152320,150840,151700,153240,152280,152460,156260,151850,161970,161630,154980,157660,156110,155060,165300,163670,162430,163850,163450,161980,162550,159010,163560,163000,154480,144140,146290,149200,144230,144770,143850,145300,144370,144140,149970,148670,147780,107880,153830,157000,156390,7271320
NPL2201,CTCT,GG,CTCT,kWh,I,F,01/05/03,99790,99680,99830,99660,99870,99810,99820,99840,99810,99860,99830,99750,99920,99700,99690,99780,99730,99760,99590,99670,99800,99770,99770,99820,99630,100150,99830,99760,99810,100520,101330,101870,102000,100760,99600,99750,99680,99810,99660,99790,99680,99860,99770,99780,99850,99780,99850,99780,4796850
NPL2201,CTCT,GG,CTCT,kWh,I,F,02/05/03,99680,99810,99850,99650,99680,99650,99710,99610,99780,99820,99710,99750,99730,99770,99690,99810,99820,100390,101720,100430,101750,101630,101700,102250,102220,102110,101560,101700,101610,101580,101720,101780,101670,101650,101700,101760,101740,101770,102260,102190,102160,102220,102210,102140,102110,102150,102050,102160,4851610
NPL2201,CTCT,GG,CTCT,kWh,I,F,03/05/03,102150,102200,102240,102240,102180,102180,102210,102250,102160,102190,102230,102200,102240,102230,102170,102260,101760,101740,101780,101700,101770,101780,101700,101790,101730,101630,101760,101640,101740,101570,101220,101140,101220,101180,101210,101270,101770,101730,101270,101510,102260,102220,102260,102230,102100,102180,102110,102220,4890520